QPF
0.02 0.03 0.03 0.02 0.02 0.02 0.01 0.01 0.01 0.00 0.01 0.01 0.02 0.01 0.01 0.01 0.01 0.01 0.02 0.02 0.01 0.01 0.01 0.01 0.00 0.01 0.02 0.05 0.07 0.06 0.05 0.03 0.02 0.01 0.01 0.01 0.01 0.02 0.03 0.04 0.03 0.02 0.01 0.01
0.02 0.02 0.02 0.02 0.02 0.03 0.02 0.01 0.01 0.01 0.00 0.01 0.02 0.01 0.01 0.02 0.03 0.01 0.01 0.01 0.01 0.01 0.00 0.01 0.00 0.01 0.02 0.04 0.05 0.05 0.04 0.02 0.01 0.01 0.00 0.00 0.00 0.01 0.01 0.01 0.02 0.01 0.01 0.01
0.02 0.01 0.01 0.02 0.03 0.02 0.01 0.01 0.01 0.01 0.00 0.00 0.01 0.01 0.01 0.01 0.04 0.01 0.01 0.01 0.02 0.01 0.00 0.00 0.01 0.01 0.02 0.03 0.03 0.03 0.02 0.01 0.01 0.01 0.00 0.00 0.00 0.00 0.00 0.00 0.00 0.00 0.01 0.01
0.01 0.01 0.01 0.01 0.01 0.01 0.01 0.00 0.00 0.00 0.01 0.01 0.01 0.01 0.00 0.01 0.01 0.01 0.01 0.02 0.03 0.02 0.01 0.00 0.01 0.01 0.02 0.02 0.02 0.02 0.01 0.01 0.00 0.00 0.01 0.00 0.00 0.00 0.00 0.00 0.00 0.00 0.00 0.00
0.01 0.01 0.01 0.01 0.01 0.01 0.01 0.00 0.01 0.01 0.01 0.01 0.00 0.01 0.01 0.00 0.01 0.01 0.01 0.03 0.03 0.02 0.01 0.01 0.01 0.01 0.02 0.01 0.01 0.01 0.01 0.00 0.00 0.00 0.00 0.00 0.00 0.00 0.00 0.00 0.00 0.00 0.00 0.00
0.01 0.01 0.01 0.01 0.01 0.01 0.01 0.01 0.01 0.01 0.01 0.01 0.00 0.00 0.01 0.00 0.01 0.01 0.02 0.02 0.03 0.03 0.02 0.01 0.01 0.01 0.01 0.01 0.01 0.00 0.00 0.00 0.00 0.00 0.00 0.00 0.00 0.00 0.00 0.00 0.00 0.00 0.00 0.01
0.01 0.01 0.01 0.01 0.01 0.01 0.01 0.01 0.02 0.02 0.02 0.01 0.00 0.00 0.01 0.00 0.00 0.00 0.01 0.01 0.02 0.02 0.01 0.01 0.01 0.01 0.01 0.01 0.00 0.00 0.00 0.00 0.00 0.00 0.00 0.00 0.00 0.00 0.00 0.01 0.01 0.00 0.00 0.01
0.01 0.02 0.01 0.01 0.01 0.02 0.01 0.01 0.03 0.03 0.02 0.01 0.00 0.00 0.00 0.00 0.00 0.00 0.00 0.00 0.01 0.01 0.01 0.01 0.00 0.00 0.00 0.00 0.00 0.00 0.00 0.00 0.00 0.00 0.00 0.00 0.00 0.00 0.01 0.01 0.01 0.01 0.01 0.01
0.01 0.01 0.01 0.00 0.00 0.01 0.01 0.01 0.01 0.01 0.01 0.01 0.01 0.00 0.00 0.00 0.00 0.00 0.00 0.00 0.00 0.01 0.01 0.00 0.00 0.00 0.00 0.00 0.00 0.00 0.00 0.00 0.00 0.01 0.01 0.01 0.01 0.01 0.01 0.01 0.01 0.01 0.01 0.02
0.00 0.01 0.00 0.00 0.01 0.01 0.01 0.01 0.01 0.01 0.02 0.02 0.01 0.01 0.01 0.01 0.00 0.00 0.00 0.00 0.00 0.00 0.01 0.00 0.00 0.00 0.00 0.00 0.01 0.01 0.00 0.00 0.00 0.01 0.01 0.01 0.02 0.01 0.01 0.01 0.01 0.01 0.01 0.01
0.00 0.01 0.00 0.00 0.01 0.01 0.01 0.01 0.01 0.02 0.02 0.02 0.02 0.01 0.00 0.01 0.00 0.00 0.00 0.00 0.00 0.00 0.00 0.00 0.00 0.00 0.00 0.00 0.00 0.00 0.00 0.00 0.00 0.01 0.01 0.01 0.01 0.01 0.01 0.01 0.01 0.01 0.01 0.01
0.00 0.00 0.00 0.00 0.00 0.01 0.01 0.01 0.01 0.01 0.01 0.01 0.01 0.00 0.00 0.00 0.00 0.00 0.00 0.00 0.00 0.00 0.00 0.00 0.00 0.00 0.00 0.00 0.00 0.00 0.00 0.00 0.00 0.01 0.01 0.01 0.01 0.01 0.01 0.01 0.01 0.01 0.01 0.00
0.01 0.01 0.01 0.01 0.01 0.00 0.00 0.00 0.01 0.01 0.01 0.01 0.01 0.00 0.00 0.00 0.00 0.00 0.00 0.01 0.01 0.01 0.00 0.00 0.00 0.00 0.00 0.00 0.00 0.00 0.01 0.01 0.00 0.01 0.01 0.01 0.01 0.01 0.00 0.00 0.00 0.00 0.00 0.00
0.01 0.01 0.01 0.01 0.01 0.00 0.00 0.00 0.00 0.01 0.01 0.00 0.00 0.00 0.00 0.00 0.00 0.00 0.00 0.01 0.01 0.01 0.01 0.01 0.01 0.00 0.00 0.00 0.00 0.01 0.01 0.00 0.00 0.00 0.00 0.01 0.00 0.00 0.00 0.00 0.00 0.00 0.00 0.00
0.00 0.00 0.00 0.00 0.00 0.00 0.00 0.00 0.00 0.00 0.00 0.00 0.00 0.00 0.00 0.00 0.01 0.01 0.01 0.01 0.01 0.02 0.02 0.01 0.01 0.01 0.01 0.00 0.00 0.00 0.00 0.00 0.00 0.00 0.00 0.00 0.00 0.00 0.00 0.00 0.00 0.00 0.00 0.00
0.00 0.00 0.00 0.00 0.00 0.00 0.00 0.00 0.00 0.00 0.00 0.00 0.00 0.00 0.00 0.00 0.01 0.02 0.02 0.01 0.02 0.02 0.02 0.01 0.01 0.01 0.01 0.01 0.00 0.00 0.00 0.00 0.00 0.00 0.00 0.00 0.00 0.00 0.00 0.00 0.00 0.00 0.00 0.00
0.00 0.00 0.01 0.00 0.00 0.00 0.00 0.00 0.00 0.00 0.00 0.00 0.00 0.00 0.00 0.01 0.01 0.01 0.01 0.01 0.01 0.01 0.01 0.01 0.01 0.01 0.01 0.00 0.00 0.00 0.00 0.00 0.00 0.00 0.00 0.00 0.00 0.00 0.00 0.00 0.00 0.00 0.00 0.00
0.00 0.01 0.01 0.00 0.00 0.00 0.00 0.00 0.00 0.00 0.00 0.00 0.00 0.00 0.00 0.01 0.01 0.01 0.01 0.01 0.01 0.01 0.01 0.01 0.00 0.01 0.00 0.00 0.00 0.00 0.00 0.00 0.00 0.00 0.00 0.00 0.00 0.00 0.00 0.00 0.00 0.00 0.00 0.00
0.01 0.01 0.01 0.01 0.00 0.00 0.00 0.00 0.00 0.00 0.00 0.00 0.00 0.00 0.00 0.00 0.00 0.00 0.00 0.01 0.01 0.01 0.01 0.00 0.00 0.00 0.00 0.00 0.00 0.00 0.01 0.01 0.01 0.01 0.00 0.00 0.00 0.00 0.00 0.00 0.00 0.00 0.00 0.00
0.00 0.01 0.02 0.01 0.01 0.00 0.00 0.00 0.00 0.00 0.00 0.00 0.00 0.00 0.00 0.00 0.00 0.00 0.00 0.00 0.00 0.00 0.00 0.00 0.00 0.00 0.00 0.00 0.00 0.00 0.01 0.01 0.01 0.01 0.01 0.00 0.00 0.00 0.00 0.00 0.00 0.00 0.01 0.01
0.00 0.01 0.01 0.01 0.01 0.00 0.00 0.00 0.00 0.00 0.00 0.00 0.00 0.00 0.00 0.00 0.00 0.00 0.00 0.00 0.00 0.00 0.00 0.00 0.00 0.00 0.00 0.00 0.00 0.00 0.00 0.01 0.01 0.01 0.01 0.01 0.01 0.01 0.01 0.01 0.01 0.01 0.01 0.01
0.00 0.00 0.00 0.01 0.01 0.01 0.00 0.00 0.00 0.00 0.00 0.00 0.00 0.00 0.00 0.00 0.00 0.00 0.00 0.00 0.00 0.00 0.00 0.00 0.00 0.00 0.00 0.00 0.00 0.01 0.01 0.01 0.01 0.01 0.01 0.01 0.01 0.01 0.01 0.01 0.01 0.01 0.01 0.01
0.00 0.00 0.00 0.00 0.00 0.00 0.00 0.00 0.00 0.00 0.00 0.00 0.00 0.00 0.00 0.00 0.00 0.00 0.00 0.00 0.00 0.00 0.00 0.00 0.00 0.00 0.00 0.00 0.00 0.01 0.01 0.01 0.01 0.00 0.00 0.00 0.00 0.00 0.01 0.01 0.01 0.01 0.01 0.01
0.00 0.00 0.00 0.00 0.00 0.00 0.00 0.00 0.00 0.00 0.00 0.00 0.00 0.00 0.00 0.00 0.00 0.00 0.00 0.00 0.00 0.00 0.00 0.00 0.00 0.00 0.00 0.00 0.00 0.00 0.00 0.00 0.00 0.00 0.00 0.00 0.00 0.00 0.00 0.00 0.00 0.00 0.00 0.00
0.00 0.00 0.00 0.00 0.00 0.00 0.00 0.00 0.00 0.00 0.00 0.00 0.00 0.00 0.00 0.00 0.00 0.00 0.00 0.00 0.00 0.00 0.00 0.00 0.00 0.00 0.00 0.00 0.00 0.00 0.00 0.00 0.00 0.00 0.00 0.00 0.00 0.00 0.00 0.00 0.00 0.00 0.00 0.00
0.00 0.00 0.00 0.00 0.00 0.00 0.00 0.00 0.00 0.00 0.00 0.00 0.00 0.00 0.00 0.00 0.00 0.00 0.00 0.00 0.00 0.00 0.00 0.00 0.00 0.00 0.00 0.00 0.00 0.00 0.00 0.00 0.00 0.00 0.00 0.00 0.00 0.00 0.00 0.00 0.00 0.00 0.00 0.00
MSLP
1017.52 1018.04 1018.49 1018.86 1019.14 1019.33 1019.44 1019.47 1019.44 1019.32 1019.13 1018.86 1018.51 1018.10 1017.65 1017.19 1016.77 1016.43 1016.22 1016.16 1016.27 1016.55 1016.98 1017.54 1018.17 1018.84 1019.50 1020.11 1020.64 1021.07 1021.38 1021.58 1021.69 1021.70 1021.65 1021.55 1021.42 1021.28 1021.13 1020.98 1020.84 1020.69 1020.53 1020.35
1018.31 1018.78 1019.17 1019.46 1019.67 1019.80 1019.86 1019.85 1019.78 1019.63 1019.39 1019.05 1018.62 1018.10 1017.53 1016.96 1016.43 1016.01 1015.74 1015.65 1015.77 1016.09 1016.58 1017.20 1017.89 1018.62 1019.32 1019.97 1020.53 1020.99 1021.35 1021.60 1021.75 1021.83 1021.83 1021.77 1021.67 1021.54 1021.38 1021.22 1021.05 1020.89 1020.72 1020.55
1018.99 1019.42 1019.76 1020.01 1020.19 1020.29 1020.34 1020.33 1020.25 1020.09 1019.80 1019.40 1018.87 1018.23 1017.53 1016.83 1016.18 1015.68 1015.36 1015.26 1015.40 1015.75 1016.29 1016.97 1017.71 1018.47 1019.19 1019.84 1020.41 1020.88 1021.25 1021.53 1021.73 1021.85 1021.91 1021.90 1021.83 1021.72 1021.57 1021.41 1021.23 1021.05 1020.88 1020.71
1019.53 1019.93 1020.25 1020.49 1020.67 1020.80 1020.89 1020.91 1020.85 1020.68 1020.37 1019.90 1019.26 1018.50 1017.66 1016.82 1016.06 1015.47 1015.10 1014.99 1015.15 1015.55 1016.14 1016.85 1017.62 1018.38 1019.09 1019.72 1020.26 1020.71 1021.07 1021.36 1021.59 1021.76 1021.86 1021.91 1021.89 1021.81 1021.69 1021.53 1021.35 1021.17 1020.99 1020.84
1019.95 1020.33 1020.64 1020.89 1021.11 1021.29 1021.44 1021.53 1021.52 1021.37 1021.03 1020.49 1019.77 1018.88 1017.90 1016.93 1016.06 1015.39 1014.97 1014.85 1015.03 1015.46 1016.08 1016.82 1017.59 1018.34 1019.01 1019.59 1020.07 1020.47 1020.80 1021.09 1021.33 1021.54 1021.70 1021.81 1021.85 1021.82 1021.73 1021.59 1021.42 1021.24 1021.07 1020.92
1020.27 1020.62 1020.93 1021.21 1021.48 1021.73 1021.97 1022.13 1022.18 1022.05 1021.70 1021.11 1020.30 1019.30 1018.20 1017.11 1016.14 1015.40 1014.94 1014.81 1014.99 1015.44 1016.08 1016.82 1017.58 1018.28 1018.90 1019.41 1019.82 1020.16 1020.45 1020.73 1020.98 1021.23 1021.44 1021.61 1021.72 1021.75 1021.70 1021.59 1021.45 1021.28 1021.12 1020.97
1020.51 1020.83 1021.13 1021.44 1021.76 1022.09 1022.39 1022.63 1022.73 1022.63 1022.28 1021.65 1020.77 1019.68 1018.48 1017.30 1016.25 1015.45 1014.96 1014.81 1014.99 1015.44 1016.07 1016.80 1017.52 1018.17 1018.72 1019.16 1019.51 1019.79 1020.05 1020.30 1020.58 1020.86 1021.13 1021.36 1021.53 1021.63 1021.63 1021.56 1021.44 1021.29 1021.13 1020.99
1020.69 1020.98 1021.27 1021.58 1021.93 1022.31 1022.67 1022.96 1023.10 1023.02 1022.67 1022.01 1021.08 1019.94 1018.68 1017.43 1016.33 1015.49 1014.97 1014.80 1014.96 1015.39 1016.01 1016.69 1017.37 1017.97 1018.46 1018.83 1019.12 1019.36 1019.59 1019.85 1020.14 1020.46 1020.78 1021.08 1021.32 1021.47 1021.52 1021.49 1021.40 1021.26 1021.12 1020.98
1020.83 1021.07 1021.33 1021.64 1021.99 1022.38 1022.76 1023.07 1023.23 1023.15 1022.79 1022.13 1021.18 1020.01 1018.73 1017.46 1016.34 1015.47 1014.93 1014.74 1014.87 1015.27 1015.84 1016.48 1017.10 1017.64 1018.07 1018.40 1018.65 1018.87 1019.09 1019.36 1019.68 1020.04 1020.42 1020.77 1021.06 1021.27 1021.37 1021.37 1021.31 1021.19 1021.06 1020.94
1020.91 1021.11 1021.33 1021.60 1021.93 1022.29 1022.65 1022.94 1023.08 1022.99 1022.63 1021.96 1021.02 1019.87 1018.60 1017.35 1016.24 1015.38 1014.83 1014.61 1014.71 1015.05 1015.56 1016.13 1016.69 1017.18 1017.57 1017.86 1018.10 1018.32 1018.56 1018.85 1019.21 1019.61 1020.03 1020.43 1020.77 1021.01 1021.15 1021.19 1021.15 1021.06 1020.95 1020.84
1020.94 1021.10 1021.27 1021.49 1021.75 1022.05 1022.35 1022.57 1022.67 1022.55 1022.17 1021.52 1020.62 1019.51 1018.31 1017.12 1016.05 1015.22 1014.67 1014.43 1014.47 1014.75 1015.19 1015.68 1016.17 1016.61 1016.96 1017.24 1017.48 1017.71 1017.98 1018.32 1018.71 1019.15 1019.61 1020.04 1020.41 1020.68 1020.85 1020.92 1020.91 1020.85 1020.76 1020.67
1020.93 1021.05 1021.18 1021.32 1021.50 1021.70 1021.90 1022.03 1022.05 1021.88 1021.49 1020.87 1020.02 1019.00 1017.89 1016.79 1015.81 1015.02 1014.49 1014.23 1014.22 1014.42 1014.77 1015.17 1015.59 1015.96 1016.28 1016.56 1016.81 1017.07 1017.38 1017.74 1018.17 1018.64 1019.12 1019.57 1019.96 1020.26 1020.46 1020.56 1020.58 1020.55 1020.49 1020.44
1020.93 1021.01 1021.08 1021.15 1021.22 1021.30 1021.37 1021.38 1021.30 1021.07 1020.67 1020.07 1019.29 1018.38 1017.40 1016.42 1015.55 1014.83 1014.33 1014.05 1014.00 1014.11 1014.36 1014.67 1015.00 1015.31 1015.59 1015.86 1016.12 1016.41 1016.75 1017.15 1017.60 1018.09 1018.58 1019.04 1019.44 1019.75 1019.97 1020.10 1020.16 1020.17 1020.16 1020.15
1020.96 1021.02 1021.03 1021.01 1020.97 1020.91 1020.83 1020.70 1020.50 1020.20 1019.77 1019.21 1018.52 1017.73 1016.89 1016.07 1015.31 1014.69 1014.23 1013.95 1013.84 1013.88 1014.02 1014.23 1014.46 1014.71 1014.95 1015.20 1015.47 1015.77 1016.13 1016.54 1017.01 1017.50 1017.99 1018.45 1018.85 1019.18 1019.41 1019.58 1019.68 1019.74 1019.78 1019.81
1021.09 1021.12 1021.07 1020.96 1020.79 1020.58 1020.33 1020.05 1019.73 1019.34 1018.89 1018.35 1017.75 1017.09 1016.41 1015.75 1015.14 1014.62 1014.21 1013.94 1013.78 1013.74 1013.78 1013.89 1014.03 1014.20 1014.39 1014.61 1014.87 1015.18 1015.55 1015.97 1016.43 1016.92 1017.40 1017.85 1018.25 1018.58 1018.84 1019.04 1019.18 1019.29 1019.38 1019.46
1021.32 1021.32 1021.21 1020.99 1020.69 1020.32 1019.91 1019.47 1019.01 1018.54 1018.06 1017.56 1017.04 1016.51 1015.98 1015.48 1015.01 1014.61 1014.27 1014.01 1013.82 1013.71 1013.67 1013.67 1013.72 1013.82 1013.95 1014.14 1014.38 1014.68 1015.04 1015.45 1015.90 1016.37 1016.84 1017.27 1017.67 1018.01 1018.29 1018.52 1018.70 1018.86 1018.99 1019.11
1021.66 1021.61 1021.42 1021.10 1020.66 1020.14 1019.57 1018.97 1018.39 1017.83 1017.31 1016.83 1016.39 1015.98 1015.61 1015.26 1014.93 1014.63 1014.36 1014.13 1013.92 1013.76 1013.64 1013.56 1013.53 1013.55 1013.63 1013.78 1013.99 1014.28 1014.62 1015.02 1015.45 1015.90 1016.34 1016.76 1017.15 1017.50 1017.80 1018.05 1018.28 1018.47 1018.64 1018.78
1022.01 1021.91 1021.65 1021.22 1020.65 1019.99 1019.26 1018.53 1017.83 1017.20 1016.65 1016.19 1015.82 1015.51 1015.27 1015.05 1014.85 1014.65 1014.45 1014.25 1014.04 1013.84 1013.66 1013.51 1013.41 1013.37 1013.41 1013.52 1013.70 1013.96 1014.29 1014.67 1015.08 1015.50 1015.93 1016.34 1016.72 1017.07 1017.38 1017.66 1017.91 1018.13 1018.32 1018.48
1022.29 1022.13 1021.78 1021.25 1020.57 1019.78 1018.94 1018.10 1017.31 1016.62 1016.05 1015.61 1015.30 1015.08 1014.94 1014.84 1014.74 1014.63 1014.49 1014.32 1014.11 1013.89 1013.67 1013.48 1013.33 1013.24 1013.24 1013.32 1013.48 1013.72 1014.03 1014.39 1014.78 1015.19 1015.59 1015.99 1016.36 1016.71 1017.03 1017.32 1017.58 1017.81 1018.01 1018.18
1022.37 1022.13 1021.71 1021.10 1020.34 1019.46 1018.54 1017.63 1016.79 1016.08 1015.51 1015.09 1014.82 1014.68 1014.61 1014.60 1014.58 1014.53 1014.44 1014.29 1014.09 1013.86 1013.62 1013.40 1013.22 1013.11 1013.08 1013.14 1013.29 1013.52 1013.81 1014.15 1014.53 1014.92 1015.31 1015.69 1016.05 1016.39 1016.71 1017.00 1017.27 1017.50 1017.70 1017.86
1022.16 1021.86 1021.36 1020.69 1019.88 1018.97 1018.01 1017.09 1016.25 1015.54 1015.00 1014.62 1014.40 1014.30 1014.29 1014.33 1014.36 1014.36 1014.29 1014.16 1013.97 1013.74 1013.49 1013.26 1013.07 1012.95 1012.91 1012.96 1013.10 1013.32 1013.61 1013.94 1014.29 1014.66 1015.03 1015.40 1015.75 1016.08 1016.38 1016.67 1016.93 1017.15 1017.34 1017.49
1021.63 1021.25 1020.70 1020.00 1019.18 1018.28 1017.35 1016.47 1015.68 1015.02 1014.53 1014.20 1014.02 1013.97 1013.99 1014.05 1014.11 1014.12 1014.07 1013.94 1013.76 1013.53 1013.28 1013.05 1012.87 1012.75 1012.72 1012.77 1012.91 1013.13 1013.40 1013.72 1014.06 1014.41 1014.76 1015.10 1015.42 1015.73 1016.02 1016.29 1016.53 1016.74 1016.92 1017.06
1020.79 1020.33 1019.75 1019.04 1018.25 1017.42 1016.58 1015.79 1015.09 1014.53 1014.11 1013.85 1013.72 1013.69 1013.73 1013.80 1013.85 1013.85 1013.79 1013.67 1013.48 1013.25 1013.02 1012.81 1012.64 1012.53 1012.51 1012.58 1012.72 1012.93 1013.19 1013.49 1013.81 1014.14 1014.46 1014.77 1015.07 1015.36 1015.62 1015.86 1016.08 1016.28 1016.44 1016.57
1019.71 1019.18 1018.57 1017.90 1017.18 1016.45 1015.74 1015.09 1014.53 1014.09 1013.78 1013.58 1013.50 1013.49 1013.54 1013.59 1013.62 1013.60 1013.52 1013.38 1013.19 1012.98 1012.76 1012.56 1012.41 1012.33 1012.32 1012.40 1012.54 1012.74 1013.00 1013.27 1013.57 1013.86 1014.15 1014.43 1014.70 1014.95 1015.18 1015.40 1015.60 1015.77 1015.92 1016.04
1018.49 1017.90 1017.29 1016.67 1016.05 1015.46 1014.91 1014.43 1014.04 1013.74 1013.54 1013.42 1013.39 1013.40 1013.43 1013.46 1013.45 1013.40 1013.30 1013.14 1012.95 1012.73 1012.53 1012.35 1012.23 1012.16 1012.17 1012.25 1012.39 1012.59 1012.82 1013.07 1013.33 1013.59 1013.85 1014.09 1014.32 1014.54 1014.74 1014.93 1015.10 1015.25 1015.39 1015.50
1017.25 1016.62 1016.03 1015.48 1014.99 1014.55 1014.18 1013.88 1013.65 1013.50 1013.41 1013.38 1013.38 1013.40 1013.42 1013.42 1013.37 1013.29 1013.15 1012.98 1012.77 1012.57 1012.37 1012.21 1012.11 1012.06 1012.07 1012.15 1012.28 1012.45 1012.66 1012.88 1013.11 1013.33 1013.55 1013.76 1013.95 1014.14 1014.31 1014.48 1014.63 1014.76 1014.88 1014.98
Thickness
5563 5558 5555 5561 5567 5572 5575 5578 5580 5583 5588 5587 5588 5593 5602 5607 5609 5611 5613 5615 5616 5617 5620 5620 5620 5618 5617 5617 5617 5617 5618 5618 5619 5619 5618 5617 5617 5618 5619 5619 5619 5619 5619 5620
5557 5553 5559 5565 5569 5570 5571 5570 5574 5579 5584 5583 5584 5589 5600 5605 5607 5609 5610 5611 5611 5612 5614 5614 5613 5612 5611 5609 5609 5610 5610 5610 5610 5610 5610 5609 5609 5609 5609 5610 5610 5609 5609 5609
5552 5553 5561 5563 5564 5566 5566 5565 5567 5569 5575 5581 5580 5583 5597 5604 5607 5608 5609 5609 5609 5609 5608 5608 5607 5605 5604 5603 5602 5603 5602 5601 5601 5601 5601 5601 5601 5601 5600 5600 5599 5599 5599 5599
5552 5556 5559 5560 5559 5560 5559 5565 5567 5567 5564 5565 5575 5565 5588 5598 5599 5601 5602 5601 5602 5603 5603 5601 5600 5598 5596 5594 5594 5594 5593 5593 5593 5594 5593 5592 5592 5591 5590 5590 5590 5590 5590 5589
5549 5553 5554 5554 5554 5557 5556 5563 5564 5565 5563 5561 5570 5565 5581 5595 5593 5595 5597 5597 5596 5597 5596 5594 5593 5592 5590 5588 5586 5586 5585 5585 5586 5586 5585 5584 5583 5583 5582 5582 5582 5581 5581 5580
5551 5552 5552 5551 5554 5556 5557 5559 5562 5562 5556 5550 5566 5565 5574 5587 5593 5595 5595 5593 5591 5590 5589 5588 5587 5585 5583 5581 5580 5578 5577 5578 5578 5578 5577 5576 5575 5574 5574 5573 5573 5572 5572 5571
5550 5550 5550 5551 5551 5552 5553 5547 5544 5545 5545 5553 5572 5567 5572 5592 5596 5595 5592 5589 5587 5585 5582 5580 5579 5577 5576 5575 5573 5571 5571 5571 5570 5570 5569 5568 5567 5566 5565 5564 5564 5564 5563 5562
5543 5541 5547 5548 5546 5544 5549 5547 5538 5539 5544 5556 5563 5560 5576 5591 5592 5590 5588 5585 5582 5579 5576 5575 5573 5571 5569 5568 5566 5565 5564 5563 5563 5562 5561 5560 5560 5558 5557 5556 5556 5555 5555 5554
5539 5539 5545 5545 5546 5545 5545 5543 5545 5538 5541 5542 5558 5574 5581 5584 5581 5581 5579 5577 5575 5573 5572 5569 5567 5565 5563 5561 5559 5558 5557 5556 5555 5554 5553 5552 5552 5551 5550 5549 5548 5547 5547 5546
5536 5533 5542 5543 5542 5541 5540 5542 5537 5534 5534 5540 5560 5570 5566 5570 5572 5573 5572 5569 5567 5567 5565 5563 5560 5558 5556 5555 5553 5552 5550 5549 5548 5547 5546 5545 5543 5543 5542 5541 5540 5539 5538 5538
5534 5531 5535 5538 5537 5537 5536 5536 5536 5534 5534 5531 5539 5556 5574 5570 5570 5568 5567 5565 5563 5560 5558 5555 5553 5552 5550 5548 5546 5545 5544 5543 5541 5540 5538 5537 5535 5535 5534 5533 5532 5531 5530 5530
5532 5526 5526 5536 5540 5539 5538 5539 5535 5525 5529 5530 5525 5543 5571 5568 5566 5564 5561 5560 5559 5556 5553 5549 5547 5545 5543 5542 5540 5539 5537 5536 5535 5534 5532 5530 5528 5527 5526 5525 5524 5523 5523 5522
5525 5522 5519 5530 5529 5529 5531 5535 5535 5531 5524 5521 5522 5542 5563 5561 5559 5558 5556 5554 5552 5550 5547 5543 5540 5538 5537 5535 5534 5533 5531 5530 5528 5527 5524 5522 5521 5520 5519 5518 5517 5516 5515 5514
5522 5518 5517 5523 5529 5529 5527 5531 5530 5523 5510 5517 5530 5543 5554 5553 5552 5551 5550 5549 5546 5543 5540 5537 5534 5532 5531 5530 5529 5527 5525 5524 5522 5520 5518 5516 5514 5513 5512 5511 5509 5508 5507 5506
5517 5513 5520 5524 5530 5530 5529 5530 5528 5523 5524 5521 5536 5542 5548 5548 5547 5547 5545 5543 5541 5538 5535 5532 5528 5526 5525 5524 5523 5521 5520 5518 5516 5513 5511 5510 5508 5507 5505 5503 5502 5500 5499 5498
5514 5511 5515 5518 5529 5530 5529 5532 5531 5528 5529 5529 5532 5536 5546 5546 5545 5542 5538 5536 5535 5532 5530 5527 5525 5522 5519 5518 5517 5516 5514 5512 5510 5507 5505 5504 5502 5500 5498 5496 5494 5492 5491 5489
5509 5507 5506 5511 5528 5525 5524 5539 5534 5533 5535 5531 5527 5535 5541 5538 5537 5535 5532 5530 5528 5526 5524 5521 5518 5515 5514 5512 5512 5510 5508 5506 5504 5501 5499 5497 5495 5493 5491 5489 5487 5485 5483 5481
5503 5501 5496 5500 5510 5510 5540 5548 5545 5538 5536 5534 5534 5536 5535 5533 5532 5530 5528 5524 5521 5520 5517 5514 5511 5509 5507 5506 5505 5504 5502 5500 5497 5495 5493 5491 5489 5486 5484 5481 5479 5477 5476 5474
5496 5493 5490 5491 5497 5516 5539 5540 5536 5530 5528 5534 5532 5531 5529 5528 5524 5522 5523 5520 5516 5513 5511 5508 5505 5503 5501 5500 5499 5497 5495 5493 5491 5489 5487 5485 5483 5481 5478 5475 5472 5470 5468 5466
5485 5483 5479 5486 5488 5499 5532 5531 5531 5525 5516 5531 5528 5524 5521 5517 5508 5512 5515 5512 5510 5508 5504 5502 5499 5497 5495 5494 5492 5490 5488 5486 5485 5483 5482 5480 5477 5474 5471 5468 5466 5463 5461 5459
5472 5470 5469 5474 5481 5503 5526 5521 5519 5509 5515 5523 5521 5517 5513 5507 5504 5506 5507 5504 5502 5500 5498 5496 5493 5491 5489 5488 5486 5483 5481 5480 5479 5477 5475 5473 5470 5468 5465 5461 5458 5455 5453 5450
5477 5472 5473 5475 5476 5493 5517 5510 5507 5510 5515 5514 5512 5510 5506 5502 5501 5500 5498 5496 5494 5492 5490 5489 5486 5484 5483 5481 5479 5476 5474 5474 5472 5470 5468 5465 5463 5460 5458 5454 5450 5447 5444 5441
5489 5490 5489 5489 5498 5512 5510 5509 5509 5509 5506 5505 5502 5501 5498 5495 5493 5491 5490 5487 5486 5485 5483 5482 5479 5478 5477 5475 5473 5470 5469 5467 5465 5462 5460 5457 5455 5452 5449 5446 5442 5438 5435 5432
5493 5494 5488 5488 5500 5506 5506 5504 5503 5502 5499 5497 5495 5493 5490 5487 5486 5484 5482 5480 5479 5478 5476 5475 5473 5471 5470 5469 5468 5466 5464 5461 5458 5454 5452 5449 5446 5443 5440 5437 5434 5431 5428 5424
5485 5481 5474 5478 5491 5494 5499 5498 5496 5494 5491 5489 5487 5485 5482 5480 5478 5476 5475 5473 5472 5472 5470 5468 5465 5465 5464 5463 5461 5460 5457 5454 5450 5447 5444 5441 5438 5435 5432 5429 5426 5424 5421 5417
5478 5474 5468 5477 5488 5485 5488 5489 5487 5483 5481 5479 5477 5475 5475 5472 5470 5469 5467 5467 5465 5464 5463 5461 5459 5458 5457 5456 5454 5452 5450 5447 5443 5439 5437 5434 5430 5427 5424 5420 5418 5416 5412 5410